Home   Weather   Kreuzlingen   Past weeks

Flag for Switzerland Past Weather in Kreuzlingen, Thurgau, Switzerland — Yesterday and Last 2 Weeks

Now
37 °F

Low clouds.


Feels Like: 37 °F
Forecast: 28 / 40 °F
Wind: 1 mph from North

Location: Friedrichshafen Airport

Current Time: Dec 11, 2016 at 2:42:45 pm

Latest Report: Dec 11, 2016 at 1:50 pm


Visibility: N/A

Pressure: 30.24 "Hg

Humidity: 93%

Dew Point: 36 °F

Location of KreuzlingenLocation

Past Weather in Kreuzlingen — Graph

°F

Kreuzlingen Temperature Yesterday

Maximum temperature yesterday: 34 °F (at 10:50 am)
Minimum temperature yesterday: 27 °F (at 12:20 am)
Average temperature yesterday: 30 °F

High & Low Weather Summary for the Past Weeks

 TemperatureHumidityPressure
High46 °F (Nov 27, 9:50 am)100% (Nov 26, 10:20 pm)30.63 "Hg (Nov 26, 10:20 pm)
Low19 °F (Nov 30, 5:20 am)42% (Nov 29, 2:50 pm)30.01 "Hg (Nov 27, 1:20 pm)
Average33 °F89%30.33 "Hg
* Reported Nov 26 1:20 pm — Dec 11 1:20 pm, Kreuzlingen, Weather by CustomWeather, © 2016

Note: Actual official high and low records may vary slightly from our data, if they occured in-between our weather recording intervals... More about our weather records

Advertising

Kreuzlingen Weather History for the Previous 24 Hours

Scroll right to see more
 ConditionsComfort  
Time TempWeatherWind HumidityBarometerVisibility
1:20 pm
Sun, Dec 11
36 °FLow clouds.1 mph100%30.24 "HgN/A
12:57 pm36 °FMostly cloudy.3 mph100%30.24 "HgN/A
12:20 pm36 °FSprinkles. Mostly cloudy.5 mph100%30.27 "HgN/A
11:50 am34 °FSprinkles. Mostly cloudy.2 mph100%30.27 "HgN/A
11:20 am34 °FLight rain. Overcast.1 mph100%30.27 "HgN/A
10:50 am32 °FIce fog.2 mph100%30.27 "Hg3 mi
10:20 am32 °FChilly.1 mph100%30.27 "Hg1 mi
9:50 am32 °FIce fog.2 mph100%30.27 "Hg0 mi
9:20 am30 °FChilly.1 mph100%30.27 "Hg0 mi
8:50 am30 °FIce fog.2 mph100%30.30 "Hg0 mi
8:20 am30 °FIce fog.3 mph100%30.30 "Hg0 mi
7:55 am30 °FChilly.3 mph100%30.30 "Hg0 mi
7:20 am30 °FChilly.1 mph100%30.27 "Hg0 mi
6:50 am30 °FChilly.No wind100%30.27 "Hg1 mi
6:20 am30 °FChilly.2 mph100%30.27 "Hg0 mi
5:50 am30 °FIce fog.No wind93%30.27 "Hg0 mi
5:20 am28 °FIce fog.2 mph100%30.24 "Hg0 mi
5:03 am28 °FChilly.2 mph100%30.24 "Hg0 mi
4:50 am28 °FIce fog.2 mph100%30.24 "Hg0 mi
4:20 am28 °FChilly.5 mph100%30.24 "Hg0 mi
3:50 am28 °FIce fog.5 mph100%30.24 "Hg0 mi
3:20 am28 °FChilly.3 mph100%30.24 "Hg0 mi
2:59 am28 °FChilly.2 mph93%30.24 "Hg0 mi
2:50 am28 °FChilly.3 mph93%30.24 "Hg0 mi
2:20 am27 °FChilly.2 mph100%30.24 "Hg0 mi
1:50 am27 °FChilly.1 mph100%30.24 "Hg0 mi
1:20 am27 °FIce fog.1 mph100%30.24 "Hg0 mi
12:50 am28 °FChilly.2 mph93%30.27 "Hg0 mi
12:20 am28 °FIce fog.1 mph93%30.27 "Hg0 mi
11:50 pm
Sat, Dec 10
28 °FIce fog.1 mph100%30.27 "Hg0 mi
11:20 pm28 °FChilly.2 mph100%30.27 "Hg0 mi
10:50 pm28 °FIce fog.1 mph100%30.27 "Hg0 mi
10:20 pm28 °FIce fog.2 mph100%30.27 "Hg0 mi
9:50 pm28 °FIce fog.2 mph100%30.27 "Hg0 mi
9:20 pm28 °FIce fog.1 mph100%30.30 "Hg0 mi
8:50 pm28 °FIce fog.2 mph100%30.30 "Hg0 mi
8:20 pm28 °FChilly.No wind100%30.30 "Hg0 mi
7:50 pm28 °FIce fog.1 mph100%30.33 "Hg0 mi
7:20 pm30 °FChilly.No wind100%30.33 "Hg0 mi
6:50 pm30 °FIce fog.2 mph100%30.33 "Hg0 mi
6:20 pm30 °FIce fog.1 mph100%30.33 "Hg0 mi
5:50 pm30 °FChilly.No wind100%30.33 "Hg0 mi
5:20 pm32 °FFog.1 mph100%30.33 "Hg0 mi
4:50 pm32 °FFog.1 mph100%30.33 "Hg0 mi
4:20 pm32 °FFog.1 mph100%30.33 "Hg0 mi
3:50 pm34 °FFog.No wind93%30.33 "Hg0 mi
3:20 pm34 °FFog.1 mph100%30.33 "Hg0 mi
2:50 pm34 °FFog.1 mph100%30.33 "Hg1 mi
2:20 pm34 °FFog.No wind100%30.33 "Hg1 mi
Weather by CustomWeather, © 2016

See weather overviewHow to use our weather pages